sat.trackr.live / text

‹ back to catalog

STARLINK-32935

NORAD 63202 · 2025-048V

PAYLOAD ACTIVE UNKNOWN

§ Identity

Operator
Country
US
Launch date
2025-03-13
Launch site
AFETR
Launch vehicle
Mass (kg)
RCS (m²)

Purposes: comms

External: N2YO · Heavens-Above · Gunter

§ Orbital elements

Epoch: 2026-09-20T04:23:02.999904Z

Period
94.27 min
Inclination
43.0033°
Eccentricity
0.0000580
Mean motion
15.27587282 rev/d
Perigee alt
482.6 km
Apogee alt
483.4 km
Semi-major
6,861.2 km
B*
4.0423e-4
RAAN
67.2452°
Arg perigee
269.9176°
Mean anomaly
90.1609°
Rev number
8,683

§ Raw data

STARLINK-329351 63202U 25048V   26263.18267361  .00010880  00000+0  40423-3 0  99972 63202  43.0033  67.2452 0000580 269.9176  90.1609 15.27587282 86834

JSON: /api/v1/satellites/63202 · /tle

For live sub-satellite position, see the globe view (requires WebGL).

§ Visibility from observer

Set your observer location to see the next 7 days of passes ≥ 10°. The values pass through the URL so the page stays shareable.

No JS? Fill the form by hand. The geolocation button needs JavaScript.